TimeCST,TemperatureF,Dew PointF,Humidity,Sea Level PressureIn,VisibilityMPH,Wind Direction,Wind SpeedMPH,Gust SpeedMPH,PrecipitationIn,Events,Conditions,WindDirDegrees,DateUTC
12:15 AM,59.0,37.4,45,30.19,10.0,South,5.8,-,N/A,,Overcast,170,2012-12-14 06:15:00
12:35 AM,59.0,41.0,51,30.19,10.0,South,5.8,-,N/A,,Overcast,170,2012-12-14 06:35:00
12:55 AM,59.0,42.8,55,30.17,10.0,SSE,5.8,-,N/A,,Overcast,150,2012-12-14 06:55:00
1:15 AM,59.0,42.8,55,30.17,10.0,SSE,5.8,-,N/A,,Overcast,160,2012-12-14 07:15:00
1:35 AM,59.0,44.6,59,30.17,10.0,SSE,4.6,-,N/A,,Overcast,160,2012-12-14 07:35:00
1:55 AM,59.0,46.4,63,30.17,10.0,SSE,5.8,-,N/A,,Overcast,150,2012-12-14 07:55:00
2:15 AM,57.2,44.6,63,30.17,10.0,Calm,Calm,-,N/A,,Overcast,0,2012-12-14 08:15:00
2:35 AM,57.2,44.6,63,30.16,10.0,SE,3.5,-,N/A,,Overcast,130,2012-12-14 08:35:00
2:55 AM,57.2,44.6,63,30.16,10.0,SE,4.6,-,N/A,,Overcast,130,2012-12-14 08:55:00
3:15 AM,57.2,44.6,63,30.16,10.0,SSE,5.8,-,N/A,,Overcast,150,2012-12-14 09:15:00
3:35 AM,57.2,46.4,67,30.15,10.0,SSE,5.8,-,N/A,,Overcast,150,2012-12-14 09:35:00
3:55 AM,57.2,46.4,67,30.15,10.0,SE,4.6,-,N/A,,Overcast,140,2012-12-14 09:55:00
4:15 AM,57.2,46.4,67,30.15,10.0,SE,3.5,-,N/A,,Overcast,140,2012-12-14 10:15:00
4:35 AM,57.2,48.2,72,30.15,10.0,Calm,Calm,-,N/A,,Overcast,0,2012-12-14 10:35:00
4:55 AM,57.2,46.4,67,30.14,10.0,SSE,5.8,-,N/A,,Overcast,150,2012-12-14 10:55:00
5:15 AM,57.2,48.2,72,30.14,10.0,SE,4.6,-,N/A,,Overcast,130,2012-12-14 11:15:00
5:35 AM,57.2,46.4,67,30.13,10.0,Calm,Calm,-,N/A,,Overcast,0,2012-12-14 11:35:00
5:55 AM,57.2,46.4,67,30.13,10.0,SE,4.6,-,N/A,,Overcast,130,2012-12-14 11:55:00
6:15 AM,57.2,48.2,72,30.12,10.0,SE,4.6,-,N/A,,Overcast,140,2012-12-14 12:15:00
6:35 AM,57.2,48.2,72,30.13,10.0,Calm,Calm,-,N/A,,Overcast,0,2012-12-14 12:35:00
6:55 AM,57.2,48.2,72,30.12,10.0,SE,9.2,-,N/A,,Overcast,140,2012-12-14 12:55:00
7:15 AM,57.2,48.2,72,30.13,10.0,SE,8.1,-,N/A,,Overcast,140,2012-12-14 13:15:00
7:35 AM,57.2,48.2,72,30.13,10.0,SSE,8.1,-,N/A,,Overcast,150,2012-12-14 13:35:00
7:55 AM,57.2,50.0,77,30.13,10.0,SSE,10.4,-,N/A,,Overcast,150,2012-12-14 13:55:00
8:15 AM,57.2,50.0,77,30.13,10.0,SE,6.9,-,N/A,,Overcast,130,2012-12-14 14:15:00
8:35 AM,57.2,48.2,72,30.13,10.0,ESE,9.2,-,N/A,,Overcast,120,2012-12-14 14:35:00
8:55 AM,57.2,50.0,77,30.12,10.0,SE,11.5,-,N/A,,Overcast,140,2012-12-14 14:55:00
9:15 AM,57.2,51.8,82,30.12,10.0,SE,12.7,17.3,N/A,,Overcast,140,2012-12-14 15:15:00
9:35 AM,57.2,51.8,82,30.13,10.0,SSE,8.1,-,N/A,,Overcast,150,2012-12-14 15:35:00
9:55 AM,57.2,51.8,82,30.13,10.0,SE,8.1,-,N/A,,Overcast,140,2012-12-14 15:55:00
10:15 AM,57.2,51.8,82,30.13,10.0,SE,8.1,-,N/A,,Overcast,130,2012-12-14 16:15:00
10:35 AM,57.2,51.8,82,30.11,10.0,East,6.9,-,N/A,,Overcast,100,2012-12-14 16:35:00
10:55 AM,55.4,51.8,88,30.10,10.0,SE,8.1,-,N/A,,Overcast,130,2012-12-14 16:55:00
11:15 AM,55.4,53.6,94,30.10,9.0,SE,4.6,-,N/A,,Overcast,140,2012-12-14 17:15:00
11:35 AM,55.4,53.6,94,30.09,5.0,SE,8.1,-,N/A,,Overcast,130,2012-12-14 17:35:00
11:55 AM,55.4,53.6,94,30.07,3.0,SE,10.4,-,N/A,,Overcast,140,2012-12-14 17:55:00
12:15 PM,55.4,53.6,94,30.07,9.0,ESE,5.8,-,N/A,,Overcast,120,2012-12-14 18:15:00
2:35 PM,62.6,59.0,88,29.96,10.0,South,8.1,-,N/A,,Overcast,180,2012-12-14 20:35:00
2:55 PM,62.6,60.8,94,29.95,2.5,South,6.9,-,N/A,,Overcast,180,2012-12-14 20:55:00
3:15 PM,62.6,60.8,94,29.93,2.0,SE,6.9,-,N/A,,Overcast,140,2012-12-14 21:15:00
3:35 PM,62.6,60.8,94,29.91,3.0,SSE,8.1,-,N/A,,Overcast,150,2012-12-14 21:35:00
4:15 PM,62.6,60.8,94,29.89,7.0,SE,6.9,-,N/A,,Overcast,130,2012-12-14 22:15:00
4:35 PM,62.6,60.8,94,29.91,7.0,SE,3.5,-,N/A,,Overcast,130,2012-12-14 22:35:00
4:55 PM,62.6,60.8,94,29.90,10.0,SSE,4.6,-,N/A,,Overcast,150,2012-12-14 22:55:00
5:15 PM,62.6,60.8,94,29.90,10.0,SE,6.9,-,N/A,,Overcast,140,2012-12-14 23:15:00
5:35 PM,62.6,62.6,100,29.90,10.0,SE,4.6,-,N/A,,Overcast,140,2012-12-14 23:35:00
6:15 PM,64.4,62.6,94,29.89,10.0,SE,3.5,-,N/A,,Overcast,140,2012-12-15 00:15:00
6:35 PM,64.4,62.6,94,29.90,10.0,Calm,Calm,-,N/A,,Overcast,0,2012-12-15 00:35:00
6:55 PM,64.4,62.6,94,29.90,10.0,ESE,3.5,-,N/A,,Overcast,110,2012-12-15 00:55:00
7:15 PM,64.4,62.6,94,29.90,10.0,Calm,Calm,-,N/A,,Overcast,0,2012-12-15 01:15:00
7:35 PM,64.4,62.6,94,29.90,10.0,Calm,Calm,-,N/A,,Overcast,0,2012-12-15 01:35:00
7:55 PM,64.4,62.6,94,29.92,10.0,Calm,Calm,-,N/A,,Overcast,0,2012-12-15 01:55:00
8:35 PM,64.4,62.6,94,29.91,10.0,Calm,Calm,-,N/A,,Overcast,0,2012-12-15 02:35:00
8:55 PM,64.4,62.6,94,29.92,10.0,Calm,Calm,-,N/A,,Overcast,0,2012-12-15 02:55:00
9:15 PM,64.4,62.6,94,29.92,10.0,Calm,Calm,-,N/A,,Overcast,0,2012-12-15 03:15:00
9:35 PM,64.4,62.6,94,29.92,10.0,Calm,Calm,-,N/A,,Overcast,0,2012-12-15 03:35:00
9:55 PM,64.4,62.6,94,29.92,10.0,Calm,Calm,-,N/A,,Overcast,0,2012-12-15 03:55:00
10:15 PM,66.2,62.6,88,29.92,10.0,Calm,Calm,-,N/A,,Overcast,0,2012-12-15 04:15:00
10:35 PM,66.2,62.6,88,29.92,10.0,Calm,Calm,-,N/A,,Overcast,0,2012-12-15 04:35:00
10:55 PM,64.4,62.6,94,29.93,10.0,Calm,Calm,-,N/A,,Overcast,0,2012-12-15 04:55:00
11:15 PM,64.4,62.6,94,29.95,10.0,North,8.1,-,N/A,,Overcast,350,2012-12-15 05:15:00
11:35 PM,66.2,62.6,88,29.95,7.0,Calm,Calm,-,N/A,Rain,Rain,0,2012-12-15 05:35:00
11:55 PM,64.4,62.6,94,29.95,5.0,Calm,Calm,-,N/A,,Overcast,0,2012-12-15 05:55:00